Regional Weather Roundup
Issued by NWS

Home | Current Version | Previous Version | Graphics & Text | Print | Product List | Glossary Off
Versions: 1 2 3 4 5 6 7 8 9 10 11 12 13 14 15 16 17 18 19 20 21 22 23 24 25 26 27 28 29 30 31 32 33 34 35 36 37 38 39 40 41 42 43 44 45 46 47 48 49 50

000
ASUS45 KCYS 201710
RWRWY

WYOMING REGIONAL WEATHER ROUNDUP
NATIONAL WEATHER SERVICE CHEYENNE WY
1100 AM MDT FRI APR 20 2018

NOTE:  "FAIR" INDICATES FEW OR NO CLOUDS BELOW 12,000 FEET
WITH NO SIGNIFICANT WEATHER AND/OR OBSTRUCTIONS TO VISIBILITY.

WYZ001-201800-
YELLOWSTONE NATIONAL PARK

CITY           SKY/WX    TMP DP  RH WIND       PRES   REMARKS
LK YELLOWSTONE   N/A     45  15  30 E6        30.12S
W YELLOWSTONE  NOT AVBL

$$
WYZ002>013-054>058-071-098>099-201800-
NORTHERN WYOMING

CITY           SKY/WX    TMP DP  RH WIND       PRES   REMARKS
JACKSON        FAIR      51  20  29 N17G25    30.01S
CODY           FAIR      54  31  41 N17G29    30.06S
GREYBULL       FAIR      55  35  47 N13       29.98F
WORLAND        FAIR      52  35  52 E12       29.99S
SHERIDAN       FAIR      52  33  48 NW6       30.08F
BUFFALO        FAIR      49  32  52 NE9       30.08S
GILLETTE       FAIR      47  29  49 SE10      30.07F
HULETT         FAIR      48  32  53 NE6       30.09S
NEWCASTLE      FAIR      46  27  46 SE16G23   30.10S

$$
WYZ014>020-022>026-101>103-201800-
CENTRAL WYOMING

CITY           SKY/WX    TMP DP  RH WIND       PRES   REMARKS
BIG PINEY      FAIR      53  29  39 N10       29.95F
PINEDALE       FAIR      50  18  27 NW5       29.96F
DUBOIS         FAIR      52  19  28 SE6       30.01S
LANDER         FAIR      52  25  35 N7        29.98F
RIVERTON       FAIR      53  28  38 N23G31    29.99F
CASPER         FAIR      40  28  62 NE10      30.02R WCI  33
DOUGLAS        FAIR      44  29  55 SE14      30.01F

$$
WYZ021-027>030-104>119-201800-
SOUTHERN WYOMING

CITY           SKY/WX    TMP DP  RH WIND       PRES   REMARKS
EVANSTON       CLOUDY    41  31  67 E15G25    29.99R
KEMMERER       CLOUDY    36  32  87 SE15      30.01R WCI  26
FORT BRIDGER   SNOW      34  34 100 SE13      30.05R VSB 1/2 WCI  25
ROCK SPRINGS   CLOUDY    42  22  44 NE15G26   29.98R
DIXON          CLOUDY    42  36  78 SW10      29.92F
RAWLINS        CLOUDY    44  26  49 NE14G24   29.95S
SARATOGA       PTSUNNY   43  27  52 N9G16     29.92S
LARAMIE        CLOUDY    39  26  59 NE8       29.93R WCI  33
CHEYENNE       PTSUNNY   47  28  47 SE15G26   29.97F
TORRINGTON     PTSUNNY   47  31  53 SE21G32   30.03S
PINE BLUFFS    FAIR      45  30  57 SE22      30.02R

$$



USA.gov is the U.S. government's official web portal to all federal, state and local government web resources and services.